Погода в Плайя-Бланка

Испания     28°51′49″N   13°49′48″W
темп.,
°C
ветер,
м/с
пор.,
м/с
влажн.,
%
обл.,
%
осадки,
мм/ч
давл.,
гПа
погр.,
м
25 июля, вс
вс2501:00+21с69881 0.0 1016394
04:00+20с69881 0.0 1015408
07:00+20с58875 0.0 1015413
10:00+21с57810 0.0 1016252
13:00+23с56730 0.0 1017115
16:00+22с68760 0.0 1015174
19:00+22ссз79780 0.0 1016225
22:00+21с610870 0.0 1017318
26 июля, пн
пн2601:00+21с59880 0.0 1017280
04:00+21с611901 0.0 1016350
07:00+21с611891 0.0 1016371
10:00+22с69850 0.0 1016250
13:00+22с711820 0.0 1016258
16:00+23с710800 0.0 1015226
19:00+22с811800 0.0 1015261
22:00+22с712850 0.0 1016364
27 июля, вт
вт2701:00+21с711900 0.0 1016414
04:00+21с8119120 0.0 1014501
07:00+21с8118930 0.0 1014598
10:00+21с811854 0.0 1015578
13:00+22с811790 0.0 1015360
16:00+22с811820 0.0 1014331
19:00+22с811841 0.0 1013423
22:00+21с8118931 0.0 1015581
28 июля, ср
ср2801:00+21с898475 0.0 1015630
04:00+21с898294 0.0 1013672
07:00+21с8981100 0.0 1013716
10:00+21ссв8979100 0.0 1014669
13:00+22с68810 0.0 1014276
16:00+22с68801 0.0 1013251
19:00+22с798213 0.0 1013334
22:00+21ссв688440 0.0 1015458
29 июля, чт
чт2901:00+21ссв578431 0.0 1015421
04:00+21с57855 0.0 1013535
07:00+21с688520 0.0 1013563
10:00+21ссв56845 0.0 1015367
13:00+22ссв45800 0.0 1015154
16:00+22с67790 0.0 1014211
19:00+22ссз78800 0.0 1014220
22:00+21с67881 0.0 1015366